Flag for Canada Weather past 2 weeks in East Hants, Nova Scotia, Canada

Now
79 °F

Overcast.


Feels Like: 79 °F
Forecast: 58 / 78 °F
Wind: 14 mph from Southwest

Location: Halifax International Airport

Current Time: Jul 4, 2015 at 4:46:17 PM

Latest Report: Jul 4, 2015 at 4:00 PM


Visibility: 15 mi

Pressure: 29.98 "Hg

Humidity: 37%

Dew point: 50 °F

Location of East HantsLocation

Historic Weather in East Hants — Graph

°F

East Hants temperature yesterday

Maximum temperature yesterday: 75 °F (at 3:00 PM)
Minimum temperature yesterday: 57 °F (at 1:00 AM)
Average temperature yesterday: 64 °F

Past Weeks' High & Low Weather Summary

 TemperatureHumidityPressure
High79 °F (Jul 4, 2:00 PM)100% (Jun 19, 8:00 PM)30.23 "Hg (Jun 19, 8:00 PM)
Low43 °F (Jun 27, 5:00 AM)30% (Jul 4, 2:00 PM)29.48 "Hg (Jun 22, 5:00 AM)
Average59 °F79%29.93 "Hg
* Reported Jun 19 3:00 PM — Jul 4 3:00 PM, East Hants, Weather by CustomWeather, © 2015

Note: Actual official high and low records may vary slightly from our data, if they occured in-between our weather recording intervals... More about our weather records

Advertising

East Hants weather history for previous 24 hours

 ConditionsComfort  
Time TempWeatherWind HumidityBarometerVisibility
3:00 PM
Sat, Jul 4
79 °FOvercast.9 mph37%29.99 "Hg15 mi
2:00 PM79 °FOvercast.2 mph30%30.00 "Hg15 mi
1:00 PM77 °FPartly sunny.6 mph34%30.01 "Hg15 mi
12:00 PM77 °FPartly sunny.3 mph36%30.02 "Hg15 mi
11:00 AM75 °FPartly sunny.6 mph44%30.01 "Hg15 mi
10:00 AM70 °FPartly sunny.6 mph53%30.01 "Hg15 mi
9:00 AM66 °FPartly sunny.5 mph56%30.01 "Hg15 mi
8:00 AM64 °FPartly sunny.7 mph56%29.99 "Hg15 mi
7:00 AM61 °FPartly sunny.8 mph59%29.98 "Hg15 mi
6:00 AM57 °FPassing clouds.10 mph67%29.97 "Hg15 mi
5:00 AM59 °FPassing clouds.10 mph63%29.96 "Hg15 mi
4:00 AM55 °FClear.7 mph72%29.95 "Hg15 mi
3:00 AM57 °FClear.9 mph72%29.94 "Hg15 mi
2:00 AM57 °FClear.7 mph72%29.93 "Hg15 mi
1:00 AM61 °FClear.10 mph63%29.93 "Hg15 mi
12:00 AM63 °FClear.9 mph56%29.92 "Hg15 mi
11:00 PM
Fri, Jul 3
64 °FClear.10 mph52%29.91 "Hg15 mi
10:00 PM64 °FPassing clouds.9 mph52%29.90 "Hg15 mi
9:00 PM68 °FPassing clouds.7 mph46%29.87 "Hg15 mi
8:00 PM72 °FPassing clouds.13 mph36%29.85 "Hg15 mi
7:00 PM72 °FPassing clouds.13 mph61%29.82 "Hg15 mi
6:00 PM73 °FPassing clouds.15 mph61%29.82 "Hg15 mi
5:00 PM75 °FScattered clouds.16 mph47%29.80 "Hg15 mi
4:00 PM75 °FScattered clouds.13 mph34%29.80 "Hg15 mi
Weather by CustomWeather, © 2015

See weather overviewHow to use our weather pages